Other Public Products
Issued by NWS Grand Forks, ND

Home | Current Version | Previous Version | Text Only | Print | Product List | Glossary On
Versions: 1 2 3 4 5 6 7 8 9 10 11 12 13 14 15 16 17 18 19 20 21 22 23 24 25 26 27 28 29 30 31 32 33 34 35 36 37 38 39 40 41 42 43 44 45 46 47 48 49 50
000
FPUS83 KFGF 010531
OPUFGF
PRAIRIE TO PINES WEATHER ROUNDUP
NATIONAL WEATHER SERVICE EASTERN NORTH DAKOTA/GRAND FORKS ND
1200 AM CDT WED JUN 01 2016

 **SATELLITE DATA USED TO AUGMENT SKY COVER AT AUTOMATED STATIONS**
 *****  WEATHER ACROSS EASTERN NORTH DAKOTA  *****

CITY           SKY/WX    TMP DP  RH WIND       PRES   REMARKS
GRAND FORKS    HVY RAIN  53  51  93 N8        29.61F FOG
GRAND FORKS AF RAIN      52  52 100 NW8       29.62F FOG
GRAND CITY NWS   N/A     52 N/A N/A NW5         N/A
BUXTON         NOT AVBL
DEVILS LAKE    PTCLDY    53  49  86 NW8       29.65F
FARGO          CLOUDY    59  52  77 SW12      29.65R
WAHPETON ARPT  CLEAR     54  46  76 W21       29.71R
$$

 *****  WEATHER ACROSS CENTRAL AND WESTERN NORTH DAKOTA  *****

CITY           SKY/WX    TMP DP  RH WIND       PRES   REMARKS
JAMESTOWN      MOCLDY    54  50  86 W15       29.68R
BISMARCK       CLOUDY    51  48  89 NW20G29   29.83R
MINOT          LGT RAIN  51  47  86 NW22G32   29.83R FOG
MINOT AFB      LGT RAIN  48  46  93 N21       29.81R
GARRISON         N/A     50  46  86 NW28G33   29.83R
WILLISTON      CLOUDY    51  44  77 N14       29.97S
DICKINSON      LGT RAIN  48  46  93 NW17      29.93R
HETTINGER      MOCLDY    49  46  90 W16       29.97S
$$

 *****  OTHER OBSERVATIONS NORTHEAST NORTH DAKOTA  *****

CITY           SKY/WX    TMP DP  RH WIND       PRES   REMARKS
WALHALLA       FAIR      57  54  88 CALM      29.65F
LANGDON        MOCLDY    52  52 100 W3        29.66S
CAVALIER       MOCLDY    57  54  88 S3        29.65S
GRAFTON        DRIZZLE   54  54 100 N5        29.66F
CANDO          CLOUDY    54  54 100 NW13G21   29.70R
FORT TOTTEN      N/A     51  51  99 NW2       29.95S
ROLLA          HVY RAIN  48  48 100 N17       29.71S
RUGBY          CLOUDY    50  50 100 NW17      29.71S
 ***** THE ABOVE OBSERVATIONS ARE NON NWS ARE NOT QUALITY
        CONTROLLED AND MAY MIS-REPORT RAIN FOR SNOW...
$$

 *****  OTHER OBSERVATIONS SOUTHEAST NORTH DAKOTA *****

CITY           SKY/WX    TMP DP  RH WIND       PRES   REMARKS
COOPERSTOWN    NOT AVBL
VALLEY CITY    MOCLDY    52  52 100 SW9       29.68S
OAKES            N/A    N/A N/A N/A MISG        N/A
GWINNER        FAIR      55  54  94 SW18      29.72R
SHEYENNE NWR     N/A     52  50  94 W6        29.95S
BUFFALO        NOT AVBL
WYNDMERE       NOT AVBL
 ***** THE ABOVE OBSERVATIONS ARE NON NWS ARE NOT QUALITY
       CONTROLLED AND MAY MIS-REPORT RAIN FOR SNOW...
$$

  *****  WEATHER ACROSS NORTHERN MINNESOTA  *****

CITY           SKY/WX    TMP DP  RH WIND       PRES   REMARKS
FLAG ISLAND    CLOUDY    55  54  94 E9        29.73F
WARROAD        CLOUDY    57  54  88 SE16      29.70F
ROSEAU         CLOUDY    57  54  88 SE9       29.69S
HALLOCK        LGT RAIN  55  54  94 E3        29.66S
THF RVR FALLS  MOCLDY    55  52  88 CALM      29.65F
HALSTAD        NOT AVBL
FOSSTON        DRIZZLE   55  52  88 S10G17    29.67S
BAUDETTE       CLOUDY    56  54  93 SE13      29.72F
WASKISH        CLOUDY    55  54  94 E8G16     29.71F
CROOKSTON      RAIN      55  54  94 SE10      29.62F
$$
  *****  WEATHER ACROSS CENTRAL AND WEST MINNESOTA  *****

CITY           SKY/WX    TMP DP  RH WIND       PRES   REMARKS
BEMIDJI        CLOUDY    58  54  84 SE10      29.69F
PARK RAPIDS    CLOUDY    64  48  56 S16G24    29.69F
WADENA         CLOUDY    61  46  59 S20G25    29.71S
DETROIT LAKES  MOCLDY    61  48  63 SW15G22   29.68F
MOORHEAD       MOCLDY    57  54  88 SW7       29.66S
FERGUS FALLS   CLOUDY    57  50  77 SW15G23   29.67R
ELBOW LAKE     CLOUDY    56  49  76 SW21G31   29.75R
MORRIS MN      CLEAR     61  48  63 SW22G29   29.77S
STAPLES        PTCLDY    61  46  59 S13       29.74S
WHEATON        CLEAR     61  52  72 SW17G28   29.77R
$$
  *****  WEATHER ELSEWHERE ACROSS MINNESOTA  *****

CITY           SKY/WX    TMP DP  RH WIND       PRES   REMARKS
DULUTH         FOG       42  41  96 SE10      29.85S VSB 1/4
INTRNTL FALLS  CLOUDY    54  53  97 SE9       29.78F FOG
ELY            CLOUDY    50  48  93 CALM      29.84S
CLOQUET        FOG       43  41  93 E5        29.84F VSB 1/4
BRAINERD       CLOUDY    58  53  84 SE9       29.76F
HIBBING        FOG       47  47 100 SE7       29.83F VSB 1/2
ALEXANDRIA     PTCLDY    60  45  57 SW25G35   29.78R
SAINT CLOUD    MOCLDY    62  51  67 S9        29.80F
MINNEAPOLIS    PTCLDY    65  58  78 S6        29.85F
$$

  *****  WEATHER ACROSS SOUTH DAKOTA  *****

CITY           SKY/WX    TMP DP  RH WIND       PRES   REMARKS
SIOUX FALLS    CLEAR     60  48  64 W13G21    29.93R
BROOKINGS      CLEAR     57  47  69 W14       29.88S
WATERTOWN      CLOUDY    57  46  66 W24G33    29.84R
HURON          PTCLDY    56  45  66 W17G28    29.90R
SISSETON         N/A     58  50  75 W18G24    29.74R
ABERDEEN       CLOUDY    57  47  69 W23G30    29.80R
MITCHELL       PTCLDY    59  49  69 SW9       29.95S
PIERRE         MOCLDY    54  46  74 W10       29.95R
MOBRIDGE       MOCLDY    54  45  71 NW17G25   29.86R
RAPID CITY     CLEAR     44  38  79 NW8       30.07S
$$

  *****  SOME WEATHER IN NEARBY STATES *****

CITY           SKY/WX    TMP DP  RH WIND       PRES   REMARKS
GLASGOW MT     CLOUDY    54  47  77 NW8       30.06R
GREAT FALLS MT CLEAR     49  37  63 E8        30.15R
CHEYENNE WY    CLEAR     46  34  62 N8        30.21R
SCOTTSBLUFF NE CLEAR     47  38  71 NW8       30.16R
OMAHA NE       PTCLDY    64  56  75 CALM      29.97S
DES MOINES IA  PTCLDY    66  62  87 W3        29.94F
DAVENPORT IA   RAIN      64  62  93 NW8       29.95F FOG
CHICAGO IL     CLOUDY    65  59  81 SE12      29.96F
EAU CLAIRE WI  CLOUDY    62  61  96 S9        29.88S
LA CROSSE WI   CLOUDY    65  63  93 SW3       29.90S
$$

  *****  SOME NATIONAL WEATHER *****

CITY           SKY/WX    TMP DP  RH WIND       PRES   REMARKS
LA GUARDIA NY  CLOUDY    75  66  73 CALM      29.98R
RALEIGH NC     MOCLDY    70  68  93 CALM      29.99S
ATLANTA GA     MOCLDY    76  63  64 E7        29.98S THUNDER
NEW ORLEANS LA PTCLDY    77  69  76 SW5       29.95F
OKLAHOMA CITY  CLOUDY    68  67  96 S7        29.95F
ALBUQUERQUE NM MOCLDY    65  39  38 NE8       30.05R
SALT LAKE CITY CLEAR     65  38  36 SE3       30.06R
LOS ANGELES CA CLOUDY    62  56  80 CALM      29.89R
BOISE ID       CLEAR     66  30  26 CALM      30.01R
SEATTLE WA     CLOUDY    67  44  43 NW5       29.97S
$$

*** WEATHER ACROSS MANITOBA...SASKATCHEWAN AND ONTARIO ***
                ***ONTARIO***

CITY           SKY/WX    TMP DP  RH WIND       PRES   REMARKS
GERALDTON      LGT RAIN  48  43  81 E13G20    30.05F
THUNDER BAY    LGT RAIN  48  46  93 E17G23    29.93F
SIOUX LOOKOUT  LGT RAIN  46  45  93 SE8       29.88F
TORONTO        CLEAR     57  45  62 N9        30.11R
BIG TROUT LK   CLOUDY    45  34  65 E8        30.15S
PICKLE LAKE    NOT AVBL
DRYDEN         CLOUDY    46  45  93 E7        29.83F
KENORA         DRIZZLE   50  50 100 E12       29.78F FOG
$$
                *** MANITOBA***

CITY           SKY/WX    TMP DP  RH WIND       PRES   REMARKS
BRANDON        LGT RAIN  48  45  87 N22G28    29.77S
DAUPHIN        LGT RAIN  46  46 100 N15G21    29.87F
ISLAND LAKE    LGT RAIN  50  37  62 E9G20     30.04S
PILOT MOUND      N/A     54  52  94 N12         N/A
THE PAS        MOCLDY    52  37  58 E5        30.02R
THOMPSON       CLOUDY    45  32  61 NE3       30.09S
WINNIPEG       CLOUDY    55  54  94 E12       29.72S
LYNN LAKE      CLOUDY    52  37  58 SE5       30.03S
CHURCHILL      PTCLDY    30  25  80 SE14      30.25F WCI  20
GILLAM         MOCLDY    41  34  75 E8        30.16R
$$
                ***SASKATCHEWAN***

CITY           SKY/WX    TMP DP  RH WIND       PRES   REMARKS
ESTEVAN        CLOUDY    46  45  93 N17G26    29.94R
KINDERSLEY     PTCLDY    52  46  82 CALM      30.06F
LLOYDMINSTER   PTCLDY    52  45  76 SE7       30.05S
PRINCE ALBERT  MOCLDY    50  46  87 W2        30.02S
REGINA         PTCLDY    48  46  93 NE5       30.02R
YORKTON        LGT RAIN  46  41  81 N9        29.97S  C1F1C2F2C3F3C4F4C5F5C6F6C7F7C8F8C9F9CaFaCbFbCcFcCdFdCe!



USA.gov is the U.S. government's official web portal to all federal, state and local government web resources and services.